TimeMDT,TemperatureF,Dew PointF,Humidity,Sea Level PressureIn,VisibilityMPH,Wind Direction,Wind SpeedMPH,Gust SpeedMPH,PrecipitationIn,Events,Conditions,WindDirDegrees,DateUTC
12:53 AM,19.9,12.9,74,30.27,10.0,West,6.9,-,N/A,,Clear,270,2012-10-07 06:53:00
1:53 AM,21.0,14.0,74,30.25,10.0,West,6.9,-,N/A,,Clear,270,2012-10-07 07:53:00
2:53 AM,19.9,14.0,78,30.22,10.0,West,3.5,-,N/A,,Clear,270,2012-10-07 08:53:00
3:53 AM,19.0,14.0,81,30.20,10.0,WSW,5.8,-,N/A,,Clear,250,2012-10-07 09:53:00
4:53 AM,23.0,14.0,68,30.18,10.0,WNW,3.5,-,N/A,,Clear,290,2012-10-07 10:53:00
5:53 AM,21.0,14.0,74,30.19,10.0,West,3.5,-,N/A,,Clear,260,2012-10-07 11:53:00
6:53 AM,25.0,10.9,55,30.17,10.0,WNW,5.8,-,N/A,,Clear,290,2012-10-07 12:53:00
7:53 AM,28.9,18.0,64,30.17,10.0,West,8.1,-,N/A,,Clear,260,2012-10-07 13:53:00
8:53 AM,34.0,21.9,61,30.15,10.0,SW,4.6,-,N/A,,Clear,220,2012-10-07 14:53:00
9:53 AM,37.9,25.0,60,30.12,10.0,WNW,11.5,21.9,N/A,,Clear,290,2012-10-07 15:53:00
10:53 AM,39.9,28.0,63,30.11,10.0,WNW,12.7,25.3,N/A,,Clear,290,2012-10-07 16:53:00
11:53 AM,43.0,28.0,56,30.09,10.0,NW,11.5,19.6,N/A,,Clear,310,2012-10-07 17:53:00
12:53 PM,44.1,27.0,51,30.09,10.0,NW,11.5,20.7,N/A,,Partly Cloudy,310,2012-10-07 18:53:00
1:53 PM,44.1,26.1,49,30.06,10.0,WNW,9.2,21.9,N/A,,Partly Cloudy,300,2012-10-07 19:53:00
2:53 PM,45.0,26.1,48,30.04,10.0,West,15.0,23.0,N/A,,Clear,280,2012-10-07 20:53:00
3:53 PM,46.0,25.0,44,30.02,10.0,NW,12.7,17.3,N/A,,Partly Cloudy,310,2012-10-07 21:53:00
4:53 PM,46.9,25.0,42,30.00,10.0,West,13.8,17.3,N/A,,Clear,280,2012-10-07 22:53:00
5:53 PM,45.0,24.1,44,30.01,10.0,West,12.7,-,N/A,,Clear,280,2012-10-07 23:53:00
6:53 PM,42.1,25.0,51,30.00,10.0,West,8.1,-,N/A,,Clear,280,2012-10-08 00:53:00
7:53 PM,42.1,24.1,49,29.97,10.0,West,6.9,-,N/A,,Clear,270,2012-10-08 01:53:00
8:53 PM,43.0,21.9,43,29.94,10.0,WSW,3.5,-,N/A,,Clear,240,2012-10-08 02:53:00
9:53 PM,42.1,21.9,45,29.93,10.0,West,9.2,-,N/A,,Clear,270,2012-10-08 03:53:00
10:53 PM,43.0,21.0,42,29.90,10.0,West,12.7,-,N/A,,Clear,260,2012-10-08 04:53:00
11:53 PM,42.1,21.9,45,29.89,10.0,West,11.5,-,N/A,,Partly Cloudy,270,2012-10-08 05:53:00